Gustavus, AK

7:24 PM AKST on February 22, 2017 (GMT -0900)
Gustavus

Weather History for PAGS - December, 2012

Change the Weather History Date:

Sunday, December 30, 2012

  Actual Average Record
Temperature  
Mean Temperature 37 °F -  
Max Temperature 41 °F 33 °F 46 °F (1963)
Min Temperature 33 °F 24 °F -1 °F (1951)
Degree Days  
Heating Degree Days 28    
Moisture  
Dew Point 33 °F    
Average Humidity 86    
Maximum Humidity 93    
Minimum Humidity 81    
Precipitation  
Precipitation 0.00 in - - ()
Sea Level Pressure  
Sea Level Pressure 29.82 in    
Wind  
Wind Speed 5 mph (NNW)    
Max Wind Speed 8 mph    
Max Gust Speed -    
Visibility 10 miles    
Events      
Averages and records for this station are not official NWS values.
T = Trace of Precipitation, MM = Missing Value Source: NWS Daily Summary

Daily Weather History Graph

Daily Weather History Graph

Search for Another Location

Airport or City:

Trip Planner

Search our weather history database for the weather conditions in past years. The results will help you decide how hot, cold, wet, or windy it might be!

Date:

Astronomy

Dec. 30, 2012 Rise Set
Actual Time 8:51 AM AKST 3:19 PM AKST
Civil Twilight 7:59 AM AKST 4:12 PM AKST
Nautical Twilight 7:06 AM AKST 5:05 PM AKST
Astronomical Twilight 6:17 AM AKST 5:54 PM AKST
Moon 6:41 PM AKST (12/30) 9:26 AM AKST (12/30)
Length of Visible Light 8h 12m
Length of Day
6h 27m
Waning Gibbous, 94% of the Moon is Illuminated
Dec 30
Waning Gibbous
Jan 4
Last Quarter
Jan 11
New
Jan 18
First Quarter
Jan 26
Full

Hourly Weather History & Observations

Time (AKST) Temp. Windchill Dew Point Humidity Pressure Visibility Wind Dir Wind Speed Gust Speed Precip Events Conditions
12:16 AM 35.6 °F 30.7 °F 32.0 °F 87% 29.92 in 10.0 mi NNW 5.8 mph - N/A   Overcast
12:36 AM 35.6 °F 31.7 °F 32.0 °F 87% 29.91 in 10.0 mi North 4.6 mph - N/A   Overcast
12:56 AM 35.6 °F 31.7 °F 30.2 °F 81% 29.90 in 10.0 mi NW 4.6 mph - N/A   Overcast
1:16 AM 35.6 °F 29.9 °F 30.2 °F 81% 29.89 in 10.0 mi NNW 6.9 mph - N/A   Overcast
1:36 AM 35.6 °F 32.8 °F 32.0 °F 87% 29.89 in 10.0 mi North 3.5 mph - N/A   Overcast
1:56 AM 35.6 °F 29.2 °F 30.2 °F 81% 29.88 in 10.0 mi NNW 8.1 mph - N/A   Overcast
2:16 AM 35.6 °F 31.7 °F 32.0 °F 87% 29.89 in 10.0 mi North 4.6 mph - N/A   Overcast
2:36 AM 35.6 °F 30.7 °F 32.0 °F 87% 29.88 in 10.0 mi North 5.8 mph - N/A   Overcast
3:16 AM 35.6 °F 31.7 °F 30.2 °F 81% 29.87 in 10.0 mi North 4.6 mph - N/A   Overcast
3:36 AM 35.6 °F 30.7 °F 30.2 °F 81% 29.87 in 10.0 mi NNW 5.8 mph - N/A   Overcast
3:56 AM 35.6 °F 29.2 °F 32.0 °F 87% 29.86 in 10.0 mi NW 8.1 mph - N/A   Overcast
4:16 AM 35.6 °F 29.2 °F 30.2 °F 81% 29.86 in 10.0 mi NNW 8.1 mph - N/A   Overcast
4:36 AM 35.6 °F 29.2 °F 32.0 °F 87% 29.86 in 10.0 mi NNW 8.1 mph - N/A   Overcast
4:56 AM 35.6 °F 29.2 °F 32.0 °F 87% 29.86 in 10.0 mi NNW 8.1 mph - N/A   Overcast
5:16 AM 35.6 °F 30.7 °F 30.2 °F 81% 29.85 in 10.0 mi NNW 5.8 mph - N/A   Overcast
5:36 AM 35.6 °F 29.9 °F 32.0 °F 87% 29.85 in 10.0 mi NNW 6.9 mph - N/A   Overcast
5:56 AM 35.6 °F 29.2 °F 30.2 °F 81% 29.84 in 10.0 mi NW 8.1 mph - N/A   Overcast
6:16 AM 35.6 °F 31.7 °F 30.2 °F 81% 29.84 in 10.0 mi NW 4.6 mph - N/A   Overcast
6:36 AM 35.6 °F 32.8 °F 30.2 °F 81% 29.83 in 10.0 mi NNW 3.5 mph - N/A   Overcast
6:56 AM 35.6 °F 31.7 °F 30.2 °F 81% 29.83 in 10.0 mi NNW 4.6 mph - N/A   Overcast
7:16 AM 35.6 °F 30.7 °F 30.2 °F 81% 29.83 in 10.0 mi NW 5.8 mph - N/A   Overcast
7:36 AM 35.6 °F 30.7 °F 30.2 °F 81% 29.83 in 10.0 mi North 5.8 mph - N/A   Overcast
7:56 AM 35.6 °F 31.7 °F 30.2 °F 81% 29.83 in 10.0 mi NNW 4.6 mph - N/A   Overcast
8:16 AM 35.6 °F 31.7 °F 30.2 °F 81% 29.83 in 10.0 mi NNW 4.6 mph - N/A   Overcast
8:36 AM 35.6 °F 30.7 °F 30.2 °F 81% 29.83 in 10.0 mi NNW 5.8 mph - N/A   Overcast
8:56 AM 35.6 °F - 32.0 °F 87% 29.83 in 10.0 mi Calm Calm - N/A   Overcast
9:16 AM 35.6 °F - 32.0 °F 87% 29.83 in 10.0 mi Calm Calm - N/A   Overcast
9:36 AM 37.4 °F 33.8 °F 35.6 °F 93% 29.84 in 10.0 mi South 4.6 mph - N/A   Overcast
9:56 AM 39.2 °F 34.2 °F 35.6 °F 87% 29.84 in 10.0 mi SE 6.9 mph - N/A   Overcast
10:16 AM 39.2 °F 34.2 °F 35.6 °F 87% 29.84 in 10.0 mi SSE 6.9 mph - N/A   Overcast
10:36 AM 39.2 °F 35.0 °F 35.6 °F 87% 29.84 in 10.0 mi SSE 5.8 mph - N/A   Overcast
10:56 AM 39.2 °F 35.0 °F 35.6 °F 87% 29.84 in 10.0 mi SSE 5.8 mph - N/A   Overcast
11:16 AM 39.2 °F 35.9 °F 35.6 °F 87% 29.84 in 10.0 mi SSE 4.6 mph - N/A   Overcast
11:36 AM 39.2 °F 34.2 °F 35.6 °F 87% 29.83 in 10.0 mi SE 6.9 mph - N/A   Overcast
11:56 AM 39.2 °F 34.2 °F 35.6 °F 87% 29.83 in 10.0 mi SSE 6.9 mph - N/A   Overcast
12:16 PM 39.2 °F 35.9 °F 35.6 °F 87% 29.83 in 10.0 mi SE 4.6 mph - N/A   Overcast
12:36 PM 39.2 °F 34.2 °F 35.6 °F 87% 29.82 in 10.0 mi SSE 6.9 mph - N/A   Overcast
12:56 PM 39.2 °F 33.6 °F 35.6 °F 87% 29.82 in 10.0 mi SE 8.1 mph - N/A   Overcast
1:16 PM 39.2 °F 34.2 °F 35.6 °F 87% 29.81 in 10.0 mi SE 6.9 mph - N/A   Overcast
1:36 PM 39.2 °F 34.2 °F 35.6 °F 87% 29.81 in 10.0 mi SE 6.9 mph - N/A   Overcast
1:56 PM 39.2 °F 37.0 °F 35.6 °F 87% 29.81 in 10.0 mi SE 3.5 mph - N/A   Overcast
2:16 PM 39.2 °F 37.0 °F 35.6 °F 87% 29.81 in 10.0 mi SE 3.5 mph - N/A   Overcast
2:36 PM 41.0 °F 39.0 °F 35.6 °F 81% 29.81 in 10.0 mi SSE 3.5 mph - N/A   Overcast
2:56 PM 41.0 °F 38.0 °F 35.6 °F 81% 29.81 in 10.0 mi SE 4.6 mph - N/A   Overcast
3:16 PM 39.2 °F - 35.6 °F 87% 29.81 in 10.0 mi Calm Calm - N/A   Overcast
3:36 PM 37.4 °F 34.9 °F 33.8 °F 87% 29.80 in 10.0 mi NNW 3.5 mph - N/A   Overcast
3:56 PM 37.4 °F 33.8 °F 33.8 °F 87% 29.80 in 10.0 mi NNW 4.6 mph - N/A   Overcast
4:16 PM 37.4 °F - 33.8 °F 87% 29.79 in 10.0 mi Calm Calm - N/A   Overcast
4:36 PM 35.6 °F 30.7 °F 33.8 °F 93% 29.80 in 10.0 mi North 5.8 mph - N/A   Overcast
4:56 PM 35.6 °F 29.9 °F 32.0 °F 87% 29.79 in 10.0 mi NNW 6.9 mph - N/A   Overcast
5:16 PM 35.6 °F 29.9 °F 33.8 °F 93% 29.79 in 10.0 mi NNW 6.9 mph - N/A   Overcast
5:36 PM 35.6 °F 29.2 °F 32.0 °F 87% 29.78 in 10.0 mi NNW 8.1 mph - N/A   Overcast
5:56 PM 35.6 °F 29.2 °F 33.8 °F 93% 29.78 in 10.0 mi NNW 8.1 mph - N/A   Overcast
6:16 PM 35.6 °F 29.9 °F 32.0 °F 87% 29.78 in 10.0 mi NNW 6.9 mph - N/A   Overcast
6:36 PM 35.6 °F 29.9 °F 32.0 °F 87% 29.77 in 10.0 mi NNW 6.9 mph - N/A   Overcast
6:56 PM 35.6 °F 29.9 °F 32.0 °F 87% 29.77 in 10.0 mi NW 6.9 mph - N/A   Overcast
7:16 PM 35.6 °F 30.7 °F 32.0 °F 87% 29.76 in 10.0 mi NW 5.8 mph - N/A   Overcast
7:36 PM 35.6 °F 31.7 °F 33.8 °F 93% 29.76 in 10.0 mi NW 4.6 mph - N/A   Overcast
7:56 PM 35.6 °F 31.7 °F 33.8 °F 93% 29.76 in 10.0 mi NW 4.6 mph - N/A   Overcast
8:16 PM 35.6 °F 30.7 °F 32.0 °F 87% 29.76 in 10.0 mi NNW 5.8 mph - N/A   Overcast
8:36 PM 35.6 °F 31.7 °F 32.0 °F 87% 29.76 in 10.0 mi NNW 4.6 mph - N/A   Overcast
8:56 PM 35.6 °F 31.7 °F 32.0 °F 87% 29.76 in 10.0 mi NNW 4.6 mph - N/A   Overcast
9:16 PM 35.6 °F 32.8 °F 32.0 °F 87% 29.76 in 10.0 mi NNW 3.5 mph - N/A   Overcast
9:36 PM 35.6 °F - 32.0 °F 87% 29.76 in 10.0 mi Calm Calm - N/A   Overcast
9:56 PM 35.6 °F 32.8 °F 32.0 °F 87% 29.76 in 10.0 mi NNW 3.5 mph - N/A   Overcast
10:16 PM 33.8 °F - 32.0 °F 93% 29.76 in 10.0 mi Calm Calm - N/A   Overcast
10:36 PM 35.6 °F 32.8 °F 32.0 °F 87% 29.77 in 10.0 mi NNW 3.5 mph - N/A   Overcast
10:56 PM 33.8 °F 30.8 °F 30.2 °F 87% 29.77 in 10.0 mi North 3.5 mph - N/A   Overcast
11:16 PM 35.6 °F 31.7 °F 32.0 °F 87% 29.77 in 10.0 mi NNW 4.6 mph - N/A   Overcast
11:36 PM 35.6 °F - 32.0 °F 87% 29.77 in 10.0 mi Calm Calm - N/A   Overcast
11:56 PM 35.6 °F 32.8 °F 32.0 °F 87% 29.77 in 10.0 mi NNW 3.5 mph - N/A   Overcast